Weather History for Millington, TN

Change the Weather History Date:

Wednesday, October 16, 2013

  Actual Average Record
Temperature  
Mean Temperature 63 °F -  
Max Temperature 69 °F 72 °F 87 °F (2011)
Min Temperature 57 °F 50 °F 41 °F (2001)
Degree Days  
Heating Degree Days 2    
Growing Degree Days 13 (Base 50)    
Moisture  
Dew Point 60 °F    
Average Humidity 93    
Maximum Humidity 100    
Minimum Humidity 77    
Precipitation  
Precipitation 0.00 in - - ()
Sea Level Pressure  
Sea Level Pressure 29.99 in    
Wind  
Wind Speed 6 mph (NNW)    
Max Wind Speed 13 mph    
Max Gust Speed -    
Visibility 9 miles    
Events Rain    
Averages and records for this station are not official NWS values.
T = Trace of Precipitation, MM = Missing Value Source: NWS Daily Summary

Daily Weather History Graph

Daily Weather History Graph

Search for Another Location

Airport:

Trip Planner

Search our weather history database for the weather conditions in past years. The results will help you decide how hot, cold, wet, or windy it might be!

Date:

Astronomy

Oct. 16, 2013 Rise Set
Actual Time 7:06 AM CDT 6:22 PM CDT
Civil Twilight 6:41 AM CDT 6:48 PM CDT
Nautical Twilight 6:11 AM CDT 7:17 PM CDT
Astronomical Twilight 5:42 AM CDT 7:47 PM CDT
Moon 4:58 PM CDT 4:39 AM CDT
Length of Visible Light 12h 07m
Length of Day
11h 15m
Waxing Gibbous, 94% of the Moon is Illuminated
Oct 16
Waxing Gibbous
Oct 18
Full
Oct 26
Last Quarter
Nov 3
New
Nov 9
First Quarter

Hourly Weather History & Observations

Time (CDT) Temp. Dew Point Humidity Pressure Visibility Wind Dir Wind Speed Gust Speed Precip Events Conditions
12:55 AM 69.8 °F 68.0 °F 94% 29.97 in 10.0 mi WSW 4.6 mph - N/A   Overcast
1:55 AM 68.0 °F 68.0 °F 100% 29.97 in 6.0 mi WNW 4.6 mph - N/A   Overcast
2:55 AM 68.0 °F 66.2 °F 94% 29.97 in 8.0 mi WNW 4.6 mph - N/A   Overcast
3:15 AM 68.0 °F 66.2 °F 94% 29.97 in 10.0 mi WNW 5.8 mph - N/A   Overcast
3:35 AM 68.0 °F 66.2 °F 94% 29.95 in 7.0 mi WNW 4.6 mph - N/A   Mostly Cloudy
3:55 AM 68.0 °F 66.2 °F 94% 29.97 in 6.0 mi West 4.6 mph - N/A   Overcast
4:15 AM 66.2 °F 64.4 °F 94% 29.98 in 5.0 mi NW 10.4 mph - N/A   Overcast
4:35 AM 64.4 °F 64.4 °F 100% 29.98 in 5.0 mi NNW 8.1 mph - N/A   Overcast
4:55 AM 64.4 °F 64.4 °F 100% 29.97 in 8.0 mi NNW 6.9 mph - N/A   Mostly Cloudy
5:15 AM 64.4 °F 64.4 °F 100% 29.98 in 10.0 mi NW 8.1 mph - N/A   Mostly Cloudy
5:35 AM 62.6 °F 62.6 °F 100% 29.98 in 7.0 mi NNW 10.4 mph - N/A Rain Light Rain
5:55 AM 62.6 °F 60.8 °F 94% 29.98 in 5.0 mi North 11.5 mph - N/A Rain Light Rain
6:55 AM 57.2 °F 57.2 °F 100% 29.98 in 5.0 mi North 10.4 mph - N/A Rain Light Rain
7:55 AM 57.2 °F 57.2 °F 100% 30.00 in 10.0 mi NNW 12.7 mph - N/A   Overcast
8:55 AM 57.2 °F 55.4 °F 94% 30.03 in 9.0 mi North 9.2 mph - N/A Rain Light Rain
9:55 AM 57.2 °F 55.4 °F 94% 30.04 in 10.0 mi North 5.8 mph - N/A Rain Light Rain
10:55 AM 57.2 °F 53.6 °F 88% 30.03 in 10.0 mi North 6.9 mph - N/A   Overcast
11:55 AM 57.2 °F 53.6 °F 88% 30.03 in 10.0 mi North 5.8 mph - N/A   Overcast
12:55 PM 60.8 °F 55.4 °F 82% 30.01 in 10.0 mi NNW 6.9 mph - N/A   Mostly Cloudy
1:55 PM 62.6 °F 55.4 °F 77% 29.99 in 10.0 mi NNW 5.8 mph - N/A   Unknown
2:55 PM 60.8 °F 55.4 °F 82% 29.99 in 10.0 mi NNW 4.6 mph - N/A   Overcast
3:55 PM 62.6 °F 55.4 °F 77% 29.98 in 10.0 mi NNW 4.6 mph - N/A   Overcast
4:55 PM 60.8 °F 55.4 °F 82% 29.97 in 10.0 mi North 3.5 mph - N/A   Mostly Cloudy
5:55 PM 60.8 °F 55.4 °F 82% 29.97 in 10.0 mi Calm Calm - N/A   Mostly Cloudy
6:55 PM 59.0 °F 57.2 °F 94% 29.98 in 10.0 mi Calm Calm - N/A   Overcast
7:55 PM 57.2 °F 57.2 °F 100% 29.98 in 10.0 mi Calm Calm - N/A   Overcast
8:55 PM 57.2 °F 55.4 °F 94% 30.00 in 10.0 mi Calm Calm - N/A   Overcast
9:55 PM 57.2 °F 57.2 °F 100% 29.99 in 10.0 mi Calm Calm - N/A   Overcast
10:55 PM 57.2 °F 57.2 °F 100% 29.99 in 10.0 mi Calm Calm - N/A   Mostly Cloudy
11:55 PM 57.2 °F 57.2 °F 100% 29.98 in 10.0 mi Calm Calm - N/A   Overcast